Regional Weather Roundup
Issued by NWS Grand Forks, ND

Home | Current Version | Previous Version | Text Only | Print | Product List | Glossary Off
Versions: 1 2 3 4 5 6 7 8 9 10 11 12 13 14 15 16 17 18 19 20 21 22 23 24 25 26 27 28 29 30 31 32 33 34 35 36 37 38 39 40 41 42 43 44 45 46 47 48 49 50

000
ASUS43 KFGF 171531
RWRFGF
PRAIRIE TO PINES  WEATHER ROUNDUP
NATIONAL WEATHER SERVICE EASTERN NORTH DAKOTA/GRAND FORKS ND
900 AM CST TUE JAN 17 2017

 **SATELLITE DATA USED TO AUGMENT SKY COVER AT AUTOMATED STATIONS**
 *****  WEATHER ACROSS EASTERN NORTH DAKOTA  *****

CITY           SKY/WX    TMP DP  RH WIND       PRES   REMARKS
GRAND FORKS    FAIR       4   0  83 S8        29.92F WCI  -9
GRAND FRKS AFB FAIR       7   3  84 S9        29.91F WCI  -6
DEVILS LAKE    FAIR       6   3  87 S3        29.89S
FARGO          FAIR       6   3  87 S8        29.97S WCI  -7
WAHPETON ARPT  FAIR       5   1  85 CALM      30.00R
$$

 ***** WEATHER ACROSS CENTRAL AND WESTERN NORTH DAKOTA  *****

CITY           SKY/WX    TMP DP  RH WIND       PRES   REMARKS
BISMARCK       FAIR       3   0  87 CALM      29.93F
MINOT          FAIR      17   9  70 S8        29.79F WCI   7
JAMESTOWN      FAIR       7   6  96 SW5       29.92F WCI  -2
MINOT AFB      FAIR      15   8  73 S12       29.78F WCI   2
GARRISON         N/A      5   2  87 S8        29.85R WCI  -8
WILLISTON      FAIR      12   6  77 SE5       29.80S WCI   4
DICKINSON      FAIR      18   9  68 S14       29.81S WCI   4
HETTINGER      FAIR      13   6  74 SW7       29.90R WCI   3
$$

 *****  OTHER AIRPORT OBSERVATIONS IN OUR AREA  *****

CITY           SKY/WX    TMP DP  RH WIND       PRES   REMARKS
WALHALLA       NOT AVBL
GRAFTON AIRPOR FAIR       5   3  92 S7        29.93R WCI  -7
VALLEY CITY AR FAIR      10  10 100 SW6       29.95S WCI   1
CANDO          NOT AVBL
CAVALIER APRT    N/A      7   5  92 S8        29.88S WCI  -6
GWINNER        FAIR       9   5  85 SW10      29.98R WCI  -6
SHEYENNE NWR     N/A      6   1  79 W3        29.95S
ROLLA            N/A    N/A N/A N/A MISG        N/A
 ***** THE ABOVE OBSERVATIONS ARE NON NWS ARE NOT QUALITY
       CONTROLLED AND MAY MIS-REPORT RAIN FOR SNOW...
$$

  *****  WEATHER ACROSS NORTHERN MINNESOTA  *****

CITY           SKY/WX    TMP DP  RH WIND       PRES   REMARKS
FLAG ISLAND    FAIR       0  -6  78 S6        29.89R WCI -12
WARROAD        FAIR       3   1  92 CALM      29.90S
ROSEAU         FAIR       3   0  85 S7        29.90S WCI  -9
HALLOCK        FAIR       3   1  92 S10       29.89S WCI -12
THF RVR FALLS  FAIR       4   1  88 S7        29.93S WCI  -8
BAUDETTE       FAIR       0  -5  79 CALM      29.89F
WASKISH        FAIR       5   1  85 CALM      29.92F
CROOKSTON      FAIR       5   1  85 S8        29.95F WCI  -8
STEPHEN NDAWN    N/A      3   1  92 S8          N/A  WCI -10
GREENBUSH NDAW   N/A      7   3  85 S8          N/A  WCI  -6
$$
  *****  WEATHER ACROSS CENTRAL AND WEST MINNESOTA  *****

CITY           SKY/WX    TMP DP  RH WIND       PRES   REMARKS
FOSSTON        FAIR       7   1  78 S7        29.92F WCI  -5
BEMIDJI        FAIR       1  -3  86 CALM      29.92F
PARK RAPIDS    FAIR      -1  -6  79 CALM      29.94S HAZE
ELBOW LAKE     LGT SNOW   3   1  89 CALM      29.99S
WADENA         LGT SNOW   0  -4  85 CALM      29.96R
DETROIT LAKES  FAIR       5   1  85 CALM      29.95F
MOORHEAD       FAIR       1  -2  85 S5        29.99S WCI  -8
FERGUS FALLS   FAIR       3   0  85 SE5       30.03S WCI  -6
MORRIS MN      FAIR       7   3  85 CALM      29.99S
STAPLES        FAIR       0  -4  85 CALM      29.96S FOG
$$
  *****  WEATHER ELSEWHERE ACROSS MINNESOTA  *****

CITY           SKY/WX    TMP DP  RH WIND       PRES   REMARKS
DULUTH         FOG       27  24  89 CALM      29.95R VSB 1/4
INTRNTL FALLS  FAIR      -1  -5  82 CALM      29.92R
ELY            MOCLDY     0  -4  85 CALM      29.94F
CLOQUET        FOG       19  16  86 CALM      29.95S VSB<1/4
WHEATON        FAIR      10   9  92 CALM      30.01F
BRAINERD       FAIR       4   2  91 CALM      29.96S FOG
HIBBING        FOG        2  -1  88 SE7       29.94R VSB<1/4 WCI -11
ALEXANDRIA     FAIR       6   5  95 W3        29.97R FOG
SAINT CLOUD    FOG       27  27 100 CALM      29.98R VSB 1/4
MINNEAPOLIS    CLOUDY    31  25  78 NW12      29.98R WCI  22
$$

  *****  WEATHER ACROSS SOUTH DAKOTA  *****

CITY           SKY/WX    TMP DP  RH WIND       PRES   REMARKS
SIOUX FALLS    FAIR      11   9  92 W3        30.03S
BROOKINGS      FAIR      10   7  87 W3        30.00S
WATERTOWN      FAIR       2  -1  88 S3        29.98S
HURON          FAIR       4   2  91 SE5       30.03S WCI  -5
SISSETON         N/A      3   1  91 CALM      29.97S
ABERDEEN       FAIR       0  -5  79 S6        30.01R WCI -12
MITCHELL       FAIR      11   9  92 W5        30.06S WCI   3
PIERRE         FAIR      13   8  81 W6        30.01R WCI   4
MOBRIDGE       FAIR       6   1  80 SE7       29.95S WCI  -6
RAPID CITY     FAIR       9   4  80 CALM      29.94S
$$

  *****  SOME WEATHER IN NEARBY STATES *****

CITY           SKY/WX    TMP DP  RH WIND       PRES   REMARKS
GLASGOW MT     FAIR      13   8  81 E9        29.74S WCI   1
GREAT FALLS MT FAIR      32  15  49 S26       29.83F WCI  18
CHEYENNE WY    FAIR      14   8  77 SW8       30.02R WCI   3
SCOTTSBLUFF NE FAIR      13   7  77 N5        30.05R WCI   5
OMAHA NE       CLOUDY    27  22  81 NW8       30.08R WCI  19
DES MOINES IA  DRZL/FOG  34  33  96 NW10      29.99R VSB 1
DAVENPORT IA   CLOUDY    33  33 100 W14       29.93R FOG     WCI  23
CHICAGO IL     CLOUDY    36  36 100 W12       29.83R
EAU CLAIRE WI  MIX PCPN  33  33 100 NE3       29.91R FOG
LA CROSSE WI   CLOUDY    36  33  89 NW7       29.90R FOG
$$

  *****  SOME NATIONAL WEATHER *****

CITY           SKY/WX    TMP DP  RH WIND       PRES   REMARKS
LA GUARDIA NY  LGT RAIN  43  30  60 VRB5      30.23S
RALEIGH NC     CLOUDY    53  51  93 SW12      30.25F FOG
ATLANTA GA     PTSUNNY   61  55  81 S9        30.23S
NEW ORLEANS LA PTSUNNY   70  69  97 S9        30.16R FOG
OKLAHOMA CITY  FAIR      38  34  85 N9        30.15R
ALBUQUERQUE NM MOCLDY    37  35  92 N8        30.15R
SALT LAKE CITY FAIR      20  17  88 CALM      30.28R FOG
LOS ANGELES CA FAIR      47  43  86 NE7       30.09R
BOISE ID       FAIR       0  -3  87 S3        30.35F FOG
SEATTLE WA     CLOUDY    41  37  86 SE5       29.78F
$$

*** WEATHER ACROSS MANITOBA...SASKATCHEWAN AND ONTARIO ***
                ***ONTARIO***

CITY           SKY/WX    TMP DP  RH WIND       PRES   REMARKS
GERALDTON      CLOUDY    19  18  93 VRB2      29.94F
THUNDER BAY    CLOUDY    27  25  93 SW6       29.98R FOG     WCI  20
SIOUX LOOKOUT  MOCLDY     7   5  92 SE6       29.86F WCI  -3
TORONTO        RAIN      34  32  93 E13G18    29.96F FOG     WCI  25
BIG TROUT LK   MOCLDY    18  14  86 S12G17    29.69F WCI   5
PICKLE LAKE    PTCLDY     9   5  85 S8        29.84F WCI  -4
DRYDEN         CLEAR     12  10  92 SW7       29.87S WCI   2
KENORA         PTCLDY     7   5  92 S8        29.86F WCI  -6
$$
                *** MANITOBA***

CITY           SKY/WX    TMP DP  RH WIND       PRES   REMARKS
BRANDON        MOCLDY     5   1  85 W6        29.76F WCI  -6
DAUPHIN        CLEAR     32  16  51 SW10G18   29.61F WCI  24
ISLAND LAKE    MOCLDY    28  19  69 SW10G20   29.59  WCI  19
PILOT MOUND      N/A      9   5  85 S10         N/A  WCI  -6
THE PAS        CLOUDY    32  19  59 S10       29.35F WCI  24
THOMPSON       CLOUDY    32  23  69 S12G17    29.32F WCI  23
WINNIPEG       PTCLDY     9   7  92 S9        29.84S WCI  -5
LYNN LAKE      CLOUDY    28  27  93 S9        29.14F WCI  20
CHURCHILL      CLOUDY    23  21  93 SW13      29.18F WCI  11
GILLAM         MOCLDY    32  25  74 SW14G20   29.33F WCI  22
$$
                ***SASKATCHEWAN***

CITY           SKY/WX    TMP DP  RH WIND       PRES   REMARKS
ESTEVAN        MOCLDY    18  10  73 SW21      29.69F WCI   1
KINDERSLEY     MOCLDY    37  30  75 SW17G24   29.45S
LLOYDMINSTER   MOCLDY    36  28  75 W6        29.37R
PRINCE ALBERT  MOCLDY    27  19  74 SW6       29.37R WCI  20
REGINA         MOCLDY    18  12  79 SE9       29.57F WCI   6
YORKTON        CLEAR     23  14  68 S22G28    29.53F WCI   8
N. BATTLEFORD  CLEAR     28  23  80 SW5       29.41R WCI  23
LA RONGE       PTCLDY    27  18  69 S5        29.25R WCI  21
SASKATOON      MOCLDY    30  25  80 SW12      29.43S WCI  21
SWIFT CURRENT  CLEAR     39  30  70 W23G29    29.54R
$$
NOTE: THESE ARE AUTOMATED STATIONS WITH LIMITED QUALITY CONTROL
      "FAIR" INDICATES FEW OR NO CLOUDS BELOW 12,000 FEET WITH NO
      SIGNIFICANT WEATHER AND/OR OBSTRUCTIONS TO VISIBILITY.
      SKY/WX - SKY CONDITION AND SIGNIFICANT WEATHER.
      TMP - AIR TEMPERATURE.    DP   - DEWPOINT TEMPERATURE.
      RH  - RELATIVE HUMIDITY.  PRES - PRESSURE.
      HX  - HEAT INDEX.         WCI  - WIND CHILL INDEX.
$



USA.gov is the U.S. government's official web portal to all federal, state and local government web resources and services.